owner,sensor,date,latitude,longitude,vertical_datum,sea_water_practical_salinity,qcFlag 
ENP,ioos.station.NOAA.NDBC:HCEF1:1,2019-09-01T00:00:00Z,25.2540,-80.4440,1.5,14.29,11111222 
ENP,ioos.station.NOAA.NDBC:HCEF1:1,2019-09-01T01:00:00Z,25.2540,-80.4440,1.5,15.42,11111222 
ENP,ioos.station.NOAA.NDBC:HCEF1:1,2019-09-01T02:00:00Z,25.2540,-80.4440,1.5,16.12,11111222 
ENP,ioos.station.NOAA.NDBC:HCEF1:1,2019-09-01T04:00:00Z,25.2540,-80.4440,1.5,16.57,11111222 
ENP,ioos.station.NOAA.NDBC:HCEF1:1,2019-09-01T06:00:00Z,25.2540,-80.4440,1.5,17.12,11111222 
ENP,ioos.station.NOAA.NDBC:HCEF1:1,2019-09-01T07:00:00Z,25.2540,-80.4440,1.5,17.37,11111222 
ENP,ioos.station.NOAA.NDBC:HCEF1:1,2019-09-01T08:00:00Z,25.2540,-80.4440,1.5,17.78,11111222 
ENP,ioos.station.NOAA.NDBC:HCEF1:1,2019-09-01T09:00:00Z,25.2540,-80.4440,1.5,17.44,11111222 
ENP,ioos.station.NOAA.NDBC:HCEF1:1,2019-09-01T10:00:00Z,25.2540,-80.4440,1.5,17.67,11111222 
ENP,ioos.station.NOAA.NDBC:HCEF1:1,2019-09-01T11:00:00Z,25.2540,-80.4440,1.5,18.06,11111222 
ENP,ioos.station.NOAA.NDBC:HCEF1:1,2019-09-01T12:00:00Z,25.2540,-80.4440,1.5,18.15,11111222 
ENP,ioos.station.NOAA.NDBC:HCEF1:1,2019-09-01T13:00:00Z,25.2540,-80.4440,1.5,18.25,11111222 
ENP,ioos.station.NOAA.NDBC:HCEF1:1,2019-09-01T14:00:00Z,25.2540,-80.4440,1.5,18.23,11111222 
ENP,ioos.station.NOAA.NDBC:HCEF1:1,2019-09-01T15:00:00Z,25.2540,-80.4440,1.5,18.3,11111222 
ENP,ioos.station.NOAA.NDBC:HCEF1:1,2019-09-01T16:00:00Z,25.2540,-80.4440,1.5,18.3,11111222 
ENP,ioos.station.NOAA.NDBC:HCEF1:1,2019-09-01T17:00:00Z,25.2540,-80.4440,1.5,18.23,11111222 
ENP,ioos.station.NOAA.NDBC:HCEF1:1,2019-09-01T18:00:00Z,25.2540,-80.4440,1.5,18.32,11111222 
ENP,ioos.station.NOAA.NDBC:HCEF1:1,2019-09-01T19:00:00Z,25.2540,-80.4440,1.5,17.28,11111222 
ENP,ioos.station.NOAA.NDBC:HCEF1:1,2019-09-01T20:00:00Z,25.2540,-80.4440,1.5,15.05,11111222 
ENP,ioos.station.NOAA.NDBC:HCEF1:1,2019-09-01T21:00:00Z,25.2540,-80.4440,1.5,15.77,11111222 
ENP,ioos.station.NOAA.NDBC:HCEF1:1,2019-09-01T22:00:00Z,25.2540,-80.4440,1.5,16.6,11111222 
ENP,ioos.station.NOAA.NDBC:HCEF1:1,2019-09-01T23:00:00Z,25.2540,-80.4440,1.5,18.27,11111222 
ENP,ioos.station.NOAA.NDBC:HCEF1:1,2019-09-02T00:00:00Z,25.2540,-80.4440,1.5,18.44,11111222 
ENP,ioos.station.NOAA.NDBC:HCEF1:1,2019-09-02T01:00:00Z,25.2540,-80.4440,1.5,19.09,11111222 
ENP,ioos.station.NOAA.NDBC:HCEF1:1,2019-09-02T02:00:00Z,25.2540,-80.4440,1.5,19.31,11111222 
ENP,ioos.station.NOAA.NDBC:HCEF1:1,2019-09-02T04:00:00Z,25.2540,-80.4440,1.5,19.67,11111222 
ENP,ioos.station.NOAA.NDBC:HCEF1:1,2019-09-02T05:00:00Z,25.2540,-80.4440,1.5,19.71,11111222 
ENP,ioos.station.NOAA.NDBC:HCEF1:1,2019-09-02T06:00:00Z,25.2540,-80.4440,1.5,19.36,11111222 
ENP,ioos.station.NOAA.NDBC:HCEF1:1,2019-09-02T07:00:00Z,25.2540,-80.4440,1.5,18.95,11111222 
ENP,ioos.station.NOAA.NDBC:HCEF1:1,2019-09-02T08:00:00Z,25.2540,-80.4440,1.5,18.9,11111222 
ENP,ioos.station.NOAA.NDBC:HCEF1:1,2019-09-02T09:00:00Z,25.2540,-80.4440,1.5,19.15,11111222 
ENP,ioos.station.NOAA.NDBC:HCEF1:1,2019-09-02T10:00:00Z,25.2540,-80.4440,1.5,19.19,11111222 
ENP,ioos.station.NOAA.NDBC:HCEF1:1,2019-09-02T11:00:00Z,25.2540,-80.4440,1.5,19.23,11111222 
ENP,ioos.station.NOAA.NDBC:HCEF1:1,2019-09-02T12:00:00Z,25.2540,-80.4440,1.5,19.26,11111222 
ENP,ioos.station.NOAA.NDBC:HCEF1:1,2019-09-02T15:00:00Z,25.2540,-80.4440,1.5,19.41,11111222 
ENP,ioos.station.NOAA.NDBC:HCEF1:1,2019-09-02T16:00:00Z,25.2540,-80.4440,1.5,19.08,11111222 
ENP,ioos.station.NOAA.NDBC:HCEF1:1,2019-09-02T17:00:00Z,25.2540,-80.4440,1.5,16.57,11111222 
ENP,ioos.station.NOAA.NDBC:HCEF1:1,2019-09-02T18:00:00Z,25.2540,-80.4440,1.5,12.76,11111222 
ENP,ioos.station.NOAA.NDBC:HCEF1:1,2019-09-02T19:00:00Z,25.2540,-80.4440,1.5,11.15,11111222 
ENP,ioos.station.NOAA.NDBC:HCEF1:1,2019-09-02T20:00:00Z,25.2540,-80.4440,1.5,10.32,11111222 
ENP,ioos.station.NOAA.NDBC:HCEF1:1,2019-09-02T21:00:00Z,25.2540,-80.4440,1.5,10.17,11111222 
ENP,ioos.station.NOAA.NDBC:HCEF1:1,2019-09-02T22:00:00Z,25.2540,-80.4440,1.5,10.22,11111222 
ENP,ioos.station.NOAA.NDBC:HCEF1:1,2019-09-02T23:00:00Z,25.2540,-80.4440,1.5,10.26,11111222 
ENP,ioos.station.NOAA.NDBC:HCEF1:1,2019-09-03T00:00:00Z,25.2540,-80.4440,1.5,10.33,11111222 
ENP,ioos.station.NOAA.NDBC:HCEF1:1,2019-09-03T02:00:00Z,25.2540,-80.4440,1.5,13.13,11111222 
ENP,ioos.station.NOAA.NDBC:HCEF1:1,2019-09-03T04:00:00Z,25.2540,-80.4440,1.5,13.61,11111222 
ENP,ioos.station.NOAA.NDBC:HCEF1:1,2019-09-03T06:00:00Z,25.2540,-80.4440,1.5,13.65,11111222 
ENP,ioos.station.NOAA.NDBC:HCEF1:1,2019-09-03T07:00:00Z,25.2540,-80.4440,1.5,14.01,11111222 
ENP,ioos.station.NOAA.NDBC:HCEF1:1,2019-09-03T08:00:00Z,25.2540,-80.4440,1.5,14.25,11111222 
ENP,ioos.station.NOAA.NDBC:HCEF1:1,2019-09-03T09:00:00Z,25.2540,-80.4440,1.5,14.54,11111222 
ENP,ioos.station.NOAA.NDBC:HCEF1:1,2019-09-03T10:00:00Z,25.2540,-80.4440,1.5,15.36,11111222 
ENP,ioos.station.NOAA.NDBC:HCEF1:1,2019-09-03T11:00:00Z,25.2540,-80.4440,1.5,16.25,11111222 
ENP,ioos.station.NOAA.NDBC:HCEF1:1,2019-09-03T12:00:00Z,25.2540,-80.4440,1.5,16.62,11111222 
ENP,ioos.station.NOAA.NDBC:HCEF1:1,2019-09-03T13:00:00Z,25.2540,-80.4440,1.5,16.4,11111222 
ENP,ioos.station.NOAA.NDBC:HCEF1:1,2019-09-03T14:00:00Z,25.2540,-80.4440,1.5,16.8,11111222 
ENP,ioos.station.NOAA.NDBC:HCEF1:1,2019-09-03T15:00:00Z,25.2540,-80.4440,1.5,15.43,11111222 
ENP,ioos.station.NOAA.NDBC:HCEF1:1,2019-09-03T16:00:00Z,25.2540,-80.4440,1.5,15.76,11111222 
ENP,ioos.station.NOAA.NDBC:HCEF1:1,2019-09-03T17:00:00Z,25.2540,-80.4440,1.5,16.98,11111222 
ENP,ioos.station.NOAA.NDBC:HCEF1:1,2019-09-03T18:00:00Z,25.2540,-80.4440,1.5,15.13,11111222 
ENP,ioos.station.NOAA.NDBC:HCEF1:1,2019-09-03T19:00:00Z,25.2540,-80.4440,1.5,16.55,11111222 
ENP,ioos.station.NOAA.NDBC:HCEF1:1,2019-09-03T20:00:00Z,25.2540,-80.4440,1.5,14.94,11111222 
ENP,ioos.station.NOAA.NDBC:HCEF1:1,2019-09-03T21:00:00Z,25.2540,-80.4440,1.5,17.72,11111222 
ENP,ioos.station.NOAA.NDBC:HCEF1:1,2019-09-03T22:00:00Z,25.2540,-80.4440,1.5,18.23,11111222 
ENP,ioos.station.NOAA.NDBC:HCEF1:1,2019-09-03T23:00:00Z,25.2540,-80.4440,1.5,18.51,11111222 
ENP,ioos.station.NOAA.NDBC:HCEF1:1,2019-09-04T00:00:00Z,25.2540,-80.4440,1.5,18.95,11111222 
ENP,ioos.station.NOAA.NDBC:HCEF1:1,2019-09-04T02:00:00Z,25.2540,-80.4440,1.5,21.5,11111222 
ENP,ioos.station.NOAA.NDBC:HCEF1:1,2019-09-04T04:00:00Z,25.2540,-80.4440,1.5,22.36,11111222 
ENP,ioos.station.NOAA.NDBC:HCEF1:1,2019-09-04T06:00:00Z,25.2540,-80.4440,1.5,22.56,11111222 
ENP,ioos.station.NOAA.NDBC:HCEF1:1,2019-09-04T07:00:00Z,25.2540,-80.4440,1.5,22.67,11111222 
ENP,ioos.station.NOAA.NDBC:HCEF1:1,2019-09-04T08:00:00Z,25.2540,-80.4440,1.5,22.72,11111222 
ENP,ioos.station.NOAA.NDBC:HCEF1:1,2019-09-04T09:00:00Z,25.2540,-80.4440,1.5,22.81,11111222 
ENP,ioos.station.NOAA.NDBC:HCEF1:1,2019-09-04T10:00:00Z,25.2540,-80.4440,1.5,22.93,11111222 
ENP,ioos.station.NOAA.NDBC:HCEF1:1,2019-09-04T11:00:00Z,25.2540,-80.4440,1.5,23.07,11111222 
ENP,ioos.station.NOAA.NDBC:HCEF1:1,2019-09-04T12:00:00Z,25.2540,-80.4440,1.5,23.14,11111222 
ENP,ioos.station.NOAA.NDBC:HCEF1:1,2019-09-04T13:00:00Z,25.2540,-80.4440,1.5,23.15,11111222 
ENP,ioos.station.NOAA.NDBC:HCEF1:1,2019-09-04T14:00:00Z,25.2540,-80.4440,1.5,23.52,11111222 
ENP,ioos.station.NOAA.NDBC:HCEF1:1,2019-09-04T15:00:00Z,25.2540,-80.4440,1.5,24.11,11111222 
ENP,ioos.station.NOAA.NDBC:HCEF1:1,2019-09-04T16:00:00Z,25.2540,-80.4440,1.5,23.97,11111222 
ENP,ioos.station.NOAA.NDBC:HCEF1:1,2019-09-04T17:00:00Z,25.2540,-80.4440,1.5,23.7,11111222 
ENP,ioos.station.NOAA.NDBC:HCEF1:1,2019-09-04T18:00:00Z,25.2540,-80.4440,1.5,23.35,11111222 
ENP,ioos.station.NOAA.NDBC:HCEF1:1,2019-09-04T19:00:00Z,25.2540,-80.4440,1.5,23.8,11111222 
ENP,ioos.station.NOAA.NDBC:HCEF1:1,2019-09-04T20:00:00Z,25.2540,-80.4440,1.5,23.9,11111222 
ENP,ioos.station.NOAA.NDBC:HCEF1:1,2019-09-04T21:00:00Z,25.2540,-80.4440,1.5,24.07,11111222 
ENP,ioos.station.NOAA.NDBC:HCEF1:1,2019-09-04T22:00:00Z,25.2540,-80.4440,1.5,24.29,11111222 
ENP,ioos.station.NOAA.NDBC:HCEF1:1,2019-09-04T23:00:00Z,25.2540,-80.4440,1.5,24.47,11111222 
ENP,ioos.station.NOAA.NDBC:HCEF1:1,2019-09-05T00:00:00Z,25.2540,-80.4440,1.5,24.81,11111222 
ENP,ioos.station.NOAA.NDBC:HCEF1:1,2019-09-05T01:00:00Z,25.2540,-80.4440,1.5,25.6,11111222 
ENP,ioos.station.NOAA.NDBC:HCEF1:1,2019-09-05T02:00:00Z,25.2540,-80.4440,1.5,25.77,11111222 
ENP,ioos.station.NOAA.NDBC:HCEF1:1,2019-09-05T04:00:00Z,25.2540,-80.4440,1.5,26.61,11111222 
ENP,ioos.station.NOAA.NDBC:HCEF1:1,2019-09-05T06:00:00Z,25.2540,-80.4440,1.5,26.81,11111222 
ENP,ioos.station.NOAA.NDBC:HCEF1:1,2019-09-05T07:00:00Z,25.2540,-80.4440,1.5,26.82,11111222 
ENP,ioos.station.NOAA.NDBC:HCEF1:1,2019-09-05T08:00:00Z,25.2540,-80.4440,1.5,26.94,11111222 
ENP,ioos.station.NOAA.NDBC:HCEF1:1,2019-09-05T09:00:00Z,25.2540,-80.4440,1.5,26.86,11111222 
ENP,ioos.station.NOAA.NDBC:HCEF1:1,2019-09-05T10:00:00Z,25.2540,-80.4440,1.5,26.98,11111222 
ENP,ioos.station.NOAA.NDBC:HCEF1:1,2019-09-05T11:00:00Z,25.2540,-80.4440,1.5,26.31,11111222 
ENP,ioos.station.NOAA.NDBC:HCEF1:1,2019-09-05T12:00:00Z,25.2540,-80.4440,1.5,25.85,11111222 
ENP,ioos.station.NOAA.NDBC:HCEF1:1,2019-09-05T13:00:00Z,25.2540,-80.4440,1.5,25.74,11111222 
ENP,ioos.station.NOAA.NDBC:HCEF1:1,2019-09-05T14:00:00Z,25.2540,-80.4440,1.5,25.76,11111222 
ENP,ioos.station.NOAA.NDBC:HCEF1:1,2019-09-05T15:00:00Z,25.2540,-80.4440,1.5,25.82,11111222 
ENP,ioos.station.NOAA.NDBC:HCEF1:1,2019-09-05T16:00:00Z,25.2540,-80.4440,1.5,25.9,11111222 
ENP,ioos.station.NOAA.NDBC:HCEF1:1,2019-09-05T17:00:00Z,25.2540,-80.4440,1.5,25.92,11111222 
ENP,ioos.station.NOAA.NDBC:HCEF1:1,2019-09-05T18:00:00Z,25.2540,-80.4440,1.5,25.98,11111222 
ENP,ioos.station.NOAA.NDBC:HCEF1:1,2019-09-05T19:00:00Z,25.2540,-80.4440,1.5,26.02,11111222 
ENP,ioos.station.NOAA.NDBC:HCEF1:1,2019-09-05T20:00:00Z,25.2540,-80.4440,1.5,26.12,11111222 
ENP,ioos.station.NOAA.NDBC:HCEF1:1,2019-09-05T21:00:00Z,25.2540,-80.4440,1.5,26.2,11111222 
ENP,ioos.station.NOAA.NDBC:HCEF1:1,2019-09-05T22:00:00Z,25.2540,-80.4440,1.5,26.27,11111222 
ENP,ioos.station.NOAA.NDBC:HCEF1:1,2019-09-05T23:00:00Z,25.2540,-80.4440,1.5,26.31,11111222 
ENP,ioos.station.NOAA.NDBC:HCEF1:1,2019-09-06T00:00:00Z,25.2540,-80.4440,1.5,26.34,11111222 
ENP,ioos.station.NOAA.NDBC:HCEF1:1,2019-09-06T02:00:00Z,25.2540,-80.4440,1.5,24.49,11111222 
ENP,ioos.station.NOAA.NDBC:HCEF1:1,2019-09-06T04:00:00Z,25.2540,-80.4440,1.5,24.58,11111222 
ENP,ioos.station.NOAA.NDBC:HCEF1:1,2019-09-06T06:00:00Z,25.2540,-80.4440,1.5,25.07,11111222 
ENP,ioos.station.NOAA.NDBC:HCEF1:1,2019-09-06T07:00:00Z,25.2540,-80.4440,1.5,24.84,11111222 
ENP,ioos.station.NOAA.NDBC:HCEF1:1,2019-09-06T08:00:00Z,25.2540,-80.4440,1.5,24.63,11111222 
ENP,ioos.station.NOAA.NDBC:HCEF1:1,2019-09-06T09:00:00Z,25.2540,-80.4440,1.5,24.5,11111222 
ENP,ioos.station.NOAA.NDBC:HCEF1:1,2019-09-06T10:00:00Z,25.2540,-80.4440,1.5,24.42,11111222 
ENP,ioos.station.NOAA.NDBC:HCEF1:1,2019-09-06T11:00:00Z,25.2540,-80.4440,1.5,24.57,11111222 
ENP,ioos.station.NOAA.NDBC:HCEF1:1,2019-09-06T12:00:00Z,25.2540,-80.4440,1.5,24.56,11111222 
ENP,ioos.station.NOAA.NDBC:HCEF1:1,2019-09-06T13:00:00Z,25.2540,-80.4440,1.5,24.61,11111222 
ENP,ioos.station.NOAA.NDBC:HCEF1:1,2019-09-06T14:00:00Z,25.2540,-80.4440,1.5,24.58,11111222 
ENP,ioos.station.NOAA.NDBC:HCEF1:1,2019-09-06T15:00:00Z,25.2540,-80.4440,1.5,24.16,11111222 
ENP,ioos.station.NOAA.NDBC:HCEF1:1,2019-09-06T16:00:00Z,25.2540,-80.4440,1.5,24.44,11111222 
ENP,ioos.station.NOAA.NDBC:HCEF1:1,2019-09-06T17:00:00Z,25.2540,-80.4440,1.5,24.42,11111222 
ENP,ioos.station.NOAA.NDBC:HCEF1:1,2019-09-06T18:00:00Z,25.2540,-80.4440,1.5,24.02,11111222 
ENP,ioos.station.NOAA.NDBC:HCEF1:1,2019-09-06T19:00:00Z,25.2540,-80.4440,1.5,24.52,11111222 
ENP,ioos.station.NOAA.NDBC:HCEF1:1,2019-09-06T20:00:00Z,25.2540,-80.4440,1.5,24.72,11111222 
ENP,ioos.station.NOAA.NDBC:HCEF1:1,2019-09-06T21:00:00Z,25.2540,-80.4440,1.5,24.89,11111222 
ENP,ioos.station.NOAA.NDBC:HCEF1:1,2019-09-06T22:00:00Z,25.2540,-80.4440,1.5,24.43,11111222 
ENP,ioos.station.NOAA.NDBC:HCEF1:1,2019-09-06T23:00:00Z,25.2540,-80.4440,1.5,24.12,11111222 
ENP,ioos.station.NOAA.NDBC:HCEF1:1,2019-09-07T00:00:00Z,25.2540,-80.4440,1.5,24.22,11111222 
ENP,ioos.station.NOAA.NDBC:HCEF1:1,2019-09-07T02:00:00Z,25.2540,-80.4440,1.5,24.3,11111222 
ENP,ioos.station.NOAA.NDBC:HCEF1:1,2019-09-07T04:00:00Z,25.2540,-80.4440,1.5,23.04,11111222 
ENP,ioos.station.NOAA.NDBC:HCEF1:1,2019-09-07T06:00:00Z,25.2540,-80.4440,1.5,23.25,11111222 
ENP,ioos.station.NOAA.NDBC:HCEF1:1,2019-09-07T07:00:00Z,25.2540,-80.4440,1.5,21.94,11111222 
ENP,ioos.station.NOAA.NDBC:HCEF1:1,2019-09-07T08:00:00Z,25.2540,-80.4440,1.5,21.36,11111222 
ENP,ioos.station.NOAA.NDBC:HCEF1:1,2019-09-07T09:00:00Z,25.2540,-80.4440,1.5,21.36,11111222 
ENP,ioos.station.NOAA.NDBC:HCEF1:1,2019-09-07T10:00:00Z,25.2540,-80.4440,1.5,21.77,11111222 
ENP,ioos.station.NOAA.NDBC:HCEF1:1,2019-09-07T11:00:00Z,25.2540,-80.4440,1.5,22.3,11111222 
ENP,ioos.station.NOAA.NDBC:HCEF1:1,2019-09-07T12:00:00Z,25.2540,-80.4440,1.5,22.1,11111222 
ENP,ioos.station.NOAA.NDBC:HCEF1:1,2019-09-07T13:00:00Z,25.2540,-80.4440,1.5,22.35,11111222 
ENP,ioos.station.NOAA.NDBC:HCEF1:1,2019-09-07T14:00:00Z,25.2540,-80.4440,1.5,23.02,11111222 
ENP,ioos.station.NOAA.NDBC:HCEF1:1,2019-09-07T15:00:00Z,25.2540,-80.4440,1.5,23.4,11111222 
ENP,ioos.station.NOAA.NDBC:HCEF1:1,2019-09-07T16:00:00Z,25.2540,-80.4440,1.5,23.18,11111222 
ENP,ioos.station.NOAA.NDBC:HCEF1:1,2019-09-07T17:00:00Z,25.2540,-80.4440,1.5,22.28,11111222 
ENP,ioos.station.NOAA.NDBC:HCEF1:1,2019-09-07T18:00:00Z,25.2540,-80.4440,1.5,21.77,11111222 
ENP,ioos.station.NOAA.NDBC:HCEF1:1,2019-09-07T19:00:00Z,25.2540,-80.4440,1.5,22.2,11111222 
ENP,ioos.station.NOAA.NDBC:HCEF1:1,2019-09-07T20:00:00Z,25.2540,-80.4440,1.5,22.7,11111222 
ENP,ioos.station.NOAA.NDBC:HCEF1:1,2019-09-07T21:00:00Z,25.2540,-80.4440,1.5,22.77,11111222 
ENP,ioos.station.NOAA.NDBC:HCEF1:1,2019-09-07T22:00:00Z,25.2540,-80.4440,1.5,21.92,11111222 
ENP,ioos.station.NOAA.NDBC:HCEF1:1,2019-09-07T23:00:00Z,25.2540,-80.4440,1.5,21.64,11111222 
ENP,ioos.station.NOAA.NDBC:HCEF1:1,2019-09-08T00:00:00Z,25.2540,-80.4440,1.5,21.59,11111222 
ENP,ioos.station.NOAA.NDBC:HCEF1:1,2019-09-08T01:00:00Z,25.2540,-80.4440,1.5,21.33,11111222 
ENP,ioos.station.NOAA.NDBC:HCEF1:1,2019-09-08T02:00:00Z,25.2540,-80.4440,1.5,21.63,11111222 
ENP,ioos.station.NOAA.NDBC:HCEF1:1,2019-09-08T04:00:00Z,25.2540,-80.4440,1.5,20.12,11111222 
ENP,ioos.station.NOAA.NDBC:HCEF1:1,2019-09-08T06:00:00Z,25.2540,-80.4440,1.5,19.73,11111222 
ENP,ioos.station.NOAA.NDBC:HCEF1:1,2019-09-08T07:00:00Z,25.2540,-80.4440,1.5,20.03,11111222 
ENP,ioos.station.NOAA.NDBC:HCEF1:1,2019-09-08T08:00:00Z,25.2540,-80.4440,1.5,20.5,11111222 
ENP,ioos.station.NOAA.NDBC:HCEF1:1,2019-09-08T09:00:00Z,25.2540,-80.4440,1.5,19.85,11111222 
ENP,ioos.station.NOAA.NDBC:HCEF1:1,2019-09-08T10:00:00Z,25.2540,-80.4440,1.5,19.8,11111222 
ENP,ioos.station.NOAA.NDBC:HCEF1:1,2019-09-08T11:00:00Z,25.2540,-80.4440,1.5,20.39,11111222 
ENP,ioos.station.NOAA.NDBC:HCEF1:1,2019-09-08T12:00:00Z,25.2540,-80.4440,1.5,21.72,11111222 
ENP,ioos.station.NOAA.NDBC:HCEF1:1,2019-09-08T13:00:00Z,25.2540,-80.4440,1.5,22.54,11111222 
ENP,ioos.station.NOAA.NDBC:HCEF1:1,2019-09-08T14:00:00Z,25.2540,-80.4440,1.5,20.83,11111222 
ENP,ioos.station.NOAA.NDBC:HCEF1:1,2019-09-08T15:00:00Z,25.2540,-80.4440,1.5,20.98,11111222 
ENP,ioos.station.NOAA.NDBC:HCEF1:1,2019-09-08T16:00:00Z,25.2540,-80.4440,1.5,20.37,11111222 
ENP,ioos.station.NOAA.NDBC:HCEF1:1,2019-09-08T17:00:00Z,25.2540,-80.4440,1.5,19.28,11111222 
ENP,ioos.station.NOAA.NDBC:HCEF1:1,2019-09-08T18:00:00Z,25.2540,-80.4440,1.5,17.83,11111222 
ENP,ioos.station.NOAA.NDBC:HCEF1:1,2019-09-08T19:00:00Z,25.2540,-80.4440,1.5,17.48,11111222 
ENP,ioos.station.NOAA.NDBC:HCEF1:1,2019-09-08T20:00:00Z,25.2540,-80.4440,1.5,18.09,11111222 
ENP,ioos.station.NOAA.NDBC:HCEF1:1,2019-09-08T21:00:00Z,25.2540,-80.4440,1.5,17.33,11111222 
ENP,ioos.station.NOAA.NDBC:HCEF1:1,2019-09-08T22:00:00Z,25.2540,-80.4440,1.5,14.6,11111222 
ENP,ioos.station.NOAA.NDBC:HCEF1:1,2019-09-08T23:00:00Z,25.2540,-80.4440,1.5,12.16,11111222 
ENP,ioos.station.NOAA.NDBC:HCEF1:1,2019-09-09T00:00:00Z,25.2540,-80.4440,1.5,11.81,11111222 
ENP,ioos.station.NOAA.NDBC:HCEF1:1,2019-09-09T01:00:00Z,25.2540,-80.4440,1.5,11.65,11111222 
ENP,ioos.station.NOAA.NDBC:HCEF1:1,2019-09-09T02:00:00Z,25.2540,-80.4440,1.5,10.83,11111222 
ENP,ioos.station.NOAA.NDBC:HCEF1:1,2019-09-09T04:00:00Z,25.2540,-80.4440,1.5,10.81,11111222 
ENP,ioos.station.NOAA.NDBC:HCEF1:1,2019-09-09T05:00:00Z,25.2540,-80.4440,1.5,11.35,11111222 
ENP,ioos.station.NOAA.NDBC:HCEF1:1,2019-09-09T06:00:00Z,25.2540,-80.4440,1.5,10.58,11111222 
ENP,ioos.station.NOAA.NDBC:HCEF1:1,2019-09-09T07:00:00Z,25.2540,-80.4440,1.5,11.26,11111222 
ENP,ioos.station.NOAA.NDBC:HCEF1:1,2019-09-09T08:00:00Z,25.2540,-80.4440,1.5,11.67,11111222 
ENP,ioos.station.NOAA.NDBC:HCEF1:1,2019-09-09T09:00:00Z,25.2540,-80.4440,1.5,13.61,11111222 
ENP,ioos.station.NOAA.NDBC:HCEF1:1,2019-09-09T10:00:00Z,25.2540,-80.4440,1.5,13.45,11111222 
ENP,ioos.station.NOAA.NDBC:HCEF1:1,2019-09-09T11:00:00Z,25.2540,-80.4440,1.5,8.5,11111222 
ENP,ioos.station.NOAA.NDBC:HCEF1:1,2019-09-09T12:00:00Z,25.2540,-80.4440,1.5,11.16,11111222 
ENP,ioos.station.NOAA.NDBC:HCEF1:1,2019-09-09T13:00:00Z,25.2540,-80.4440,1.5,13.9,11111222 
ENP,ioos.station.NOAA.NDBC:HCEF1:1,2019-09-09T14:00:00Z,25.2540,-80.4440,1.5,10.27,11111222 
ENP,ioos.station.NOAA.NDBC:HCEF1:1,2019-09-09T15:00:00Z,25.2540,-80.4440,1.5,9.38,11111222 
ENP,ioos.station.NOAA.NDBC:HCEF1:1,2019-09-09T16:00:00Z,25.2540,-80.4440,1.5,7.08,11111222 
ENP,ioos.station.NOAA.NDBC:HCEF1:1,2019-09-09T17:00:00Z,25.2540,-80.4440,1.5,7.19,11111222 
ENP,ioos.station.NOAA.NDBC:HCEF1:1,2019-09-09T21:00:00Z,25.2540,-80.4440,1.5,7.9,11111222 
ENP,ioos.station.NOAA.NDBC:HCEF1:1,2019-09-09T22:00:00Z,25.2540,-80.4440,1.5,7.23,11111222 
ENP,ioos.station.NOAA.NDBC:HCEF1:1,2019-09-09T23:00:00Z,25.2540,-80.4440,1.5,6.95,11111222 
ENP,ioos.station.NOAA.NDBC:HCEF1:1,2019-09-10T00:00:00Z,25.2540,-80.4440,1.5,7.04,11111222 
ENP,ioos.station.NOAA.NDBC:HCEF1:1,2019-09-10T01:00:00Z,25.2540,-80.4440,1.5,7.15,11111222 
ENP,ioos.station.NOAA.NDBC:HCEF1:1,2019-09-10T02:00:00Z,25.2540,-80.4440,1.5,7.01,11111222 
ENP,ioos.station.NOAA.NDBC:HCEF1:1,2019-09-10T04:00:00Z,25.2540,-80.4440,1.5,7.22,11111222 
ENP,ioos.station.NOAA.NDBC:HCEF1:1,2019-09-10T05:00:00Z,25.2540,-80.4440,1.5,7.46,11111222 
ENP,ioos.station.NOAA.NDBC:HCEF1:1,2019-09-10T06:00:00Z,25.2540,-80.4440,1.5,7.59,11111222 
ENP,ioos.station.NOAA.NDBC:HCEF1:1,2019-09-10T07:00:00Z,25.2540,-80.4440,1.5,7.68,11111222 
ENP,ioos.station.NOAA.NDBC:HCEF1:1,2019-09-10T08:00:00Z,25.2540,-80.4440,1.5,7.42,11111222 
ENP,ioos.station.NOAA.NDBC:HCEF1:1,2019-09-10T09:00:00Z,25.2540,-80.4440,1.5,7.21,11111222 
ENP,ioos.station.NOAA.NDBC:HCEF1:1,2019-09-10T10:00:00Z,25.2540,-80.4440,1.5,7.05,11111222 
ENP,ioos.station.NOAA.NDBC:HCEF1:1,2019-09-10T11:00:00Z,25.2540,-80.4440,1.5,6.96,11111222 
ENP,ioos.station.NOAA.NDBC:HCEF1:1,2019-09-10T12:00:00Z,25.2540,-80.4440,1.5,7.01,11111222 
ENP,ioos.station.NOAA.NDBC:HCEF1:1,2019-09-10T13:00:00Z,25.2540,-80.4440,1.5,7.06,11111222 
ENP,ioos.station.NOAA.NDBC:HCEF1:1,2019-09-10T14:00:00Z,25.2540,-80.4440,1.5,6.7,11111222 
ENP,ioos.station.NOAA.NDBC:HCEF1:1,2019-09-10T15:00:00Z,25.2540,-80.4440,1.5,6.62,11111222 
ENP,ioos.station.NOAA.NDBC:HCEF1:1,2019-09-10T16:00:00Z,25.2540,-80.4440,1.5,6.59,11111222 
ENP,ioos.station.NOAA.NDBC:HCEF1:1,2019-09-10T17:00:00Z,25.2540,-80.4440,1.5,6.64,11111222 
ENP,ioos.station.NOAA.NDBC:HCEF1:1,2019-09-10T18:00:00Z,25.2540,-80.4440,1.5,6.7,11111222 
ENP,ioos.station.NOAA.NDBC:HCEF1:1,2019-09-10T19:00:00Z,25.2540,-80.4440,1.5,6.76,11111222 
ENP,ioos.station.NOAA.NDBC:HCEF1:1,2019-09-10T20:00:00Z,25.2540,-80.4440,1.5,6.78,11111222 
ENP,ioos.station.NOAA.NDBC:HCEF1:1,2019-09-10T21:00:00Z,25.2540,-80.4440,1.5,6.61,11111222 
ENP,ioos.station.NOAA.NDBC:HCEF1:1,2019-09-10T22:00:00Z,25.2540,-80.4440,1.5,6.61,11111222 
ENP,ioos.station.NOAA.NDBC:HCEF1:1,2019-09-10T23:00:00Z,25.2540,-80.4440,1.5,6.61,11111222 
ENP,ioos.station.NOAA.NDBC:HCEF1:1,2019-09-11T00:00:00Z,25.2540,-80.4440,1.5,6.19,11111222 
ENP,ioos.station.NOAA.NDBC:HCEF1:1,2019-09-11T01:00:00Z,25.2540,-80.4440,1.5,6.0,11111222 
ENP,ioos.station.NOAA.NDBC:HCEF1:1,2019-09-11T02:00:00Z,25.2540,-80.4440,1.5,5.88,11111222 
ENP,ioos.station.NOAA.NDBC:HCEF1:1,2019-09-11T04:00:00Z,25.2540,-80.4440,1.5,6.87,11111222 
ENP,ioos.station.NOAA.NDBC:HCEF1:1,2019-09-11T06:00:00Z,25.2540,-80.4440,1.5,7.45,11111222 
ENP,ioos.station.NOAA.NDBC:HCEF1:1,2019-09-11T07:00:00Z,25.2540,-80.4440,1.5,7.59,11111222 
ENP,ioos.station.NOAA.NDBC:HCEF1:1,2019-09-11T08:00:00Z,25.2540,-80.4440,1.5,7.9,11111222 
ENP,ioos.station.NOAA.NDBC:HCEF1:1,2019-09-11T09:00:00Z,25.2540,-80.4440,1.5,8.49,11111222 
ENP,ioos.station.NOAA.NDBC:HCEF1:1,2019-09-11T10:00:00Z,25.2540,-80.4440,1.5,8.3,11111222 
ENP,ioos.station.NOAA.NDBC:HCEF1:1,2019-09-11T11:00:00Z,25.2540,-80.4440,1.5,8.63,11111222 
ENP,ioos.station.NOAA.NDBC:HCEF1:1,2019-09-11T12:00:00Z,25.2540,-80.4440,1.5,8.41,11111222 
ENP,ioos.station.NOAA.NDBC:HCEF1:1,2019-09-11T13:00:00Z,25.2540,-80.4440,1.5,8.53,11111222 
ENP,ioos.station.NOAA.NDBC:HCEF1:1,2019-09-11T14:00:00Z,25.2540,-80.4440,1.5,8.1,11111222 
ENP,ioos.station.NOAA.NDBC:HCEF1:1,2019-09-11T15:00:00Z,25.2540,-80.4440,1.5,8.26,11111222 
ENP,ioos.station.NOAA.NDBC:HCEF1:1,2019-09-11T16:00:00Z,25.2540,-80.4440,1.5,7.29,11111222 
ENP,ioos.station.NOAA.NDBC:HCEF1:1,2019-09-11T17:00:00Z,25.2540,-80.4440,1.5,7.48,11111222 
ENP,ioos.station.NOAA.NDBC:HCEF1:1,2019-09-11T19:00:00Z,25.2540,-80.4440,1.5,8.56,11111222 
ENP,ioos.station.NOAA.NDBC:HCEF1:1,2019-09-11T20:00:00Z,25.2540,-80.4440,1.5,10.15,11111222 
ENP,ioos.station.NOAA.NDBC:HCEF1:1,2019-09-11T21:00:00Z,25.2540,-80.4440,1.5,10.94,11111222 
ENP,ioos.station.NOAA.NDBC:HCEF1:1,2019-09-11T22:00:00Z,25.2540,-80.4440,1.5,11.95,11111222 
ENP,ioos.station.NOAA.NDBC:HCEF1:1,2019-09-11T23:00:00Z,25.2540,-80.4440,1.5,11.24,11111222 
ENP,ioos.station.NOAA.NDBC:HCEF1:1,2019-09-12T00:00:00Z,25.2540,-80.4440,1.5,12.63,11111222 
ENP,ioos.station.NOAA.NDBC:HCEF1:1,2019-09-12T01:00:00Z,25.2540,-80.4440,1.5,14.65,11111222 
ENP,ioos.station.NOAA.NDBC:HCEF1:1,2019-09-12T02:00:00Z,25.2540,-80.4440,1.5,15.08,11111222 
ENP,ioos.station.NOAA.NDBC:HCEF1:1,2019-09-12T04:00:00Z,25.2540,-80.4440,1.5,14.7,11111222 
ENP,ioos.station.NOAA.NDBC:HCEF1:1,2019-09-12T05:00:00Z,25.2540,-80.4440,1.5,15.16,11111222 
ENP,ioos.station.NOAA.NDBC:HCEF1:1,2019-09-12T06:00:00Z,25.2540,-80.4440,1.5,15.93,11111222 
ENP,ioos.station.NOAA.NDBC:HCEF1:1,2019-09-12T07:00:00Z,25.2540,-80.4440,1.5,17.62,11111222 
ENP,ioos.station.NOAA.NDBC:HCEF1:1,2019-09-12T08:00:00Z,25.2540,-80.4440,1.5,18.04,11111222 
ENP,ioos.station.NOAA.NDBC:HCEF1:1,2019-09-12T09:00:00Z,25.2540,-80.4440,1.5,18.41,11111222 
ENP,ioos.station.NOAA.NDBC:HCEF1:1,2019-09-12T10:00:00Z,25.2540,-80.4440,1.5,18.66,11111222 
ENP,ioos.station.NOAA.NDBC:HCEF1:1,2019-09-12T11:00:00Z,25.2540,-80.4440,1.5,18.97,11111222 
ENP,ioos.station.NOAA.NDBC:HCEF1:1,2019-09-12T12:00:00Z,25.2540,-80.4440,1.5,19.52,11111222 
ENP,ioos.station.NOAA.NDBC:HCEF1:1,2019-09-12T13:00:00Z,25.2540,-80.4440,1.5,19.83,11111222 
ENP,ioos.station.NOAA.NDBC:HCEF1:1,2019-09-12T14:00:00Z,25.2540,-80.4440,1.5,20.36,11111222 
ENP,ioos.station.NOAA.NDBC:HCEF1:1,2019-09-12T15:00:00Z,25.2540,-80.4440,1.5,19.21,11111222 
ENP,ioos.station.NOAA.NDBC:HCEF1:1,2019-09-13T19:00:00Z,25.2540,-80.4440,1.5,22.56,11111222 
ENP,ioos.station.NOAA.NDBC:HCEF1:1,2019-09-13T20:00:00Z,25.2540,-80.4440,1.5,22.65,11111222 
ENP,ioos.station.NOAA.NDBC:HCEF1:1,2019-09-13T21:00:00Z,25.2540,-80.4440,1.5,23.34,11111222 
ENP,ioos.station.NOAA.NDBC:HCEF1:1,2019-09-13T22:00:00Z,25.2540,-80.4440,1.5,23.74,11111222 
ENP,ioos.station.NOAA.NDBC:HCEF1:1,2019-09-13T23:00:00Z,25.2540,-80.4440,1.5,24.44,11111222 
ENP,ioos.station.NOAA.NDBC:HCEF1:1,2019-09-14T00:00:00Z,25.2540,-80.4440,1.5,25.12,11111222 
ENP,ioos.station.NOAA.NDBC:HCEF1:1,2019-09-14T02:00:00Z,25.2540,-80.4440,1.5,25.55,11111222 